Time,TemperatureF,DewpointF,PressureIn,WindDirection,WindDirectionDegrees,WindSpeedMPH,WindSpeedGustMPH,Humidity,HourlyPrecipIn,Conditions,Clouds,dailyrainin,SolarRadiationWatts/m^2,SoftwareType,DateUTC
2013-02-20 00:17:00,33.3,17.1,29.91,North,0,10.0,14.0,51,0.00,,CLR,0.00,0.00,VWS V14.01,2013-02-20 05:17:00,
2013-02-20 00:22:00,33.3,17.1,29.90,WNW,285,6.0,14.0,51,0.00,,CLR,0.00,0.00,VWS V14.01,2013-02-20 05:22:00,
2013-02-20 00:27:00,33.3,16.7,29.90,NNW,335,8.0,11.0,50,0.00,,CLR,0.00,0.00,VWS V14.01,2013-02-20 05:27:00,
2013-02-20 00:32:00,33.3,16.7,29.90,NNW,344,7.0,22.0,50,0.00,,CLR,0.00,0.00,VWS V14.01,2013-02-20 05:32:00,
2013-02-20 00:37:00,33.3,15.7,29.90,NNW,337,5.0,18.0,48,0.00,,CLR,0.00,0.00,VWS V14.01,2013-02-20 05:37:00,
2013-02-20 00:42:00,33.1,16.5,29.90,North,0,6.0,18.0,50,0.00,,CLR,0.00,0.00,VWS V14.01,2013-02-20 05:42:00,
2013-02-20 00:47:00,32.8,17.6,29.90,NNW,340,7.0,11.0,53,0.00,,CLR,0.00,0.00,VWS V14.01,2013-02-20 05:47:00,
2013-02-20 00:52:00,32.7,17.0,29.90,North,354,2.0,26.0,52,0.00,,CLR,0.00,0.00,VWS V14.01,2013-02-20 05:52:00,
2013-02-20 00:57:00,32.5,17.7,29.90,North,356,4.0,7.0,54,0.00,,CLR,0.00,0.00,VWS V14.01,2013-02-20 05:57:00,
2013-02-20 01:02:00,32.4,17.2,29.90,North,0,8.0,13.0,53,0.00,,CLR,0.00,0.00,VWS V14.01,2013-02-20 06:02:00,
2013-02-20 01:08:00,32.2,17.4,29.90,North,349,13.0,18.0,54,0.00,,CLR,0.00,0.00,VWS V14.01,2013-02-20 06:08:00,
2013-02-20 01:13:00,31.9,17.6,29.90,North,0,10.0,25.0,55,0.00,,CLR,0.00,0.00,VWS V14.01,2013-02-20 06:13:00,
2013-02-20 01:18:00,31.8,17.9,29.90,North,0,8.0,16.0,56,0.00,,CLR,0.00,0.00,VWS V14.01,2013-02-20 06:18:00,
2013-02-20 01:23:00,31.5,17.2,29.91,North,0,3.0,17.0,55,0.00,,CLR,0.00,0.00,VWS V14.01,2013-02-20 06:23:00,
2013-02-20 01:28:00,31.5,16.8,29.91,NNW,337,9.0,22.0,54,0.00,,CLR,0.00,0.00,VWS V14.01,2013-02-20 06:28:00,
2013-02-20 01:33:00,31.4,17.5,29.91,North,0,4.0,22.0,56,0.00,,CLR,0.00,0.00,VWS V14.01,2013-02-20 06:33:00,
2013-02-20 01:38:00,31.4,16.7,29.92,NNW,335,18.0,21.0,54,0.00,,CLR,0.00,0.00,VWS V14.01,2013-02-20 06:38:00,
2013-02-20 01:43:00,31.2,16.1,29.92,NW,325,12.0,22.0,53,0.00,,CLR,0.00,0.00,VWS V14.01,2013-02-20 06:43:00,
2013-02-20 01:48:00,31.4,14.9,29.92,NW,313,6.0,26.0,50,0.00,,CLR,0.00,0.00,VWS V14.01,2013-02-20 06:48:00,
2013-02-20 01:54:00,31.4,14.9,29.91,NNW,332,13.0,26.0,50,0.00,,CLR,0.00,0.00,VWS V14.01,2013-02-20 06:54:00,
2013-02-20 01:59:00,31.4,14.9,29.91,NNW,329,13.0,18.0,50,0.00,,CLR,0.00,0.00,VWS V14.01,2013-02-20 06:59:00,
2013-02-20 02:04:00,31.2,14.7,29.91,North,0,8.0,18.0,50,0.00,,CLR,0.00,0.00,VWS V14.01,2013-02-20 07:04:00,
2013-02-20 02:09:00,31.1,16.0,29.92,NNE,18,8.0,13.0,53,0.00,,CLR,0.00,0.00,VWS V14.01,2013-02-20 07:09:00,
2013-02-20 02:14:00,30.8,17.0,29.92,North,0,11.0,16.0,56,0.00,,CLR,0.00,0.00,VWS V14.01,2013-02-20 07:14:00,
2013-02-20 02:19:00,30.5,16.7,29.92,North,0,12.0,18.0,56,0.00,,CLR,0.00,0.00,VWS V14.01,2013-02-20 07:19:00,
2013-02-20 02:24:00,30.3,16.1,29.92,North,357,5.0,18.0,55,0.00,,CLR,0.00,0.00,VWS V14.01,2013-02-20 07:24:00,
2013-02-20 02:29:00,30.2,16.0,29.92,North,0,7.0,13.0,55,0.00,,CLR,0.00,0.00,VWS V14.01,2013-02-20 07:29:00,
2013-02-20 02:34:00,30.0,16.2,29.92,North,10,10.0,14.0,56,0.00,,CLR,0.00,0.00,VWS V14.01,2013-02-20 07:34:00,
2013-02-20 02:39:00,29.9,16.1,29.92,North,0,7.0,13.0,56,0.00,,CLR,0.00,0.00,VWS V14.01,2013-02-20 07:39:00,
2013-02-20 02:44:00,29.7,15.5,29.92,North,356,13.0,13.0,55,0.00,,CLR,0.00,0.00,VWS V14.01,2013-02-20 07:44:00,
2013-02-20 02:49:00,29.6,15.4,29.92,NNW,347,5.0,14.0,55,0.00,,CLR,0.00,0.00,VWS V14.01,2013-02-20 07:49:00,
2013-02-20 02:55:00,29.6,15.4,29.92,North,349,7.0,14.0,55,0.00,,CLR,0.00,0.00,VWS V14.01,2013-02-20 07:55:00,
2013-02-20 03:00:00,29.6,15.0,29.92,North,3,7.0,11.0,54,0.00,,CLR,0.00,0.00,VWS V14.01,2013-02-20 08:00:00,
2013-02-20 03:05:00,29.6,15.4,29.92,North,0,10.0,13.0,55,0.00,,CLR,0.00,0.00,VWS V14.01,2013-02-20 08:05:00,
2013-02-20 03:10:00,29.6,15.0,29.92,North,0,7.0,14.0,54,0.00,,CLR,0.00,0.00,VWS V14.01,2013-02-20 08:10:00,
2013-02-20 03:15:00,29.4,15.7,29.92,NNW,346,7.0,14.0,56,0.00,,CLR,0.00,0.00,VWS V14.01,2013-02-20 08:15:00,
2013-02-20 03:20:00,29.1,15.8,29.92,North,357,7.0,17.0,57,0.00,,CLR,0.00,0.00,VWS V14.01,2013-02-20 08:20:00,
2013-02-20 03:25:00,29.0,15.3,29.92,North,0,6.0,17.0,56,0.00,,CLR,0.00,0.00,VWS V14.01,2013-02-20 08:25:00,
2013-02-20 03:30:00,28.8,15.5,29.92,North,357,5.0,12.0,57,0.00,,CLR,0.00,0.00,VWS V14.01,2013-02-20 08:30:00,
2013-02-20 03:35:00,29.0,14.9,29.91,NNW,335,7.0,18.0,55,0.00,,CLR,0.00,0.00,VWS V14.01,2013-02-20 08:35:00,
2013-02-20 03:40:00,29.0,14.9,29.91,NW,308,13.0,25.0,55,0.00,,CLR,0.00,0.00,VWS V14.01,2013-02-20 08:40:00,
2013-02-20 03:45:00,29.1,12.8,29.91,WNW,287,10.0,12.0,50,0.00,,CLR,0.00,0.00,VWS V14.01,2013-02-20 08:45:00,
2013-02-20 03:50:00,29.1,12.8,29.92,NNW,339,14.0,22.0,50,0.00,,CLR,0.00,0.00,VWS V14.01,2013-02-20 08:50:00,
2013-02-20 03:56:00,29.1,11.9,29.92,NNW,342,11.0,18.0,48,0.00,,CLR,0.00,0.00,VWS V14.01,2013-02-20 08:56:00,
2013-02-20 04:01:00,29.0,12.2,29.92,NW,312,16.0,20.0,49,0.00,,CLR,0.00,0.00,VWS V14.01,2013-02-20 09:01:00,
2013-02-20 04:06:00,28.8,12.5,29.93,NNW,340,10.0,17.0,50,0.00,,CLR,0.00,0.00,VWS V14.01,2013-02-20 09:06:00,
2013-02-20 04:11:00,28.8,12.5,29.93,North,0,8.0,17.0,50,0.00,,CLR,0.00,0.00,VWS V14.01,2013-02-20 09:11:00,
2013-02-20 04:16:00,28.7,12.4,29.93,North,0,7.0,10.0,50,0.00,,CLR,0.00,0.00,VWS V14.01,2013-02-20 09:16:00,
2013-02-20 04:21:00,28.7,12.4,29.95,North,7,10.0,17.0,50,0.00,,CLR,0.00,0.00,VWS V14.01,2013-02-20 09:21:00,
2013-02-20 04:26:00,28.5,12.7,29.95,North,356,3.0,8.0,51,0.00,,CLR,0.00,0.00,VWS V14.01,2013-02-20 09:26:00,
2013-02-20 04:31:00,28.5,12.2,29.95,North,0,10.0,15.0,50,0.00,,CLR,0.00,0.00,VWS V14.01,2013-02-20 09:31:00,
2013-02-20 04:36:00,28.5,12.2,29.95,NNW,347,5.0,10.0,50,0.00,,CLR,0.00,0.00,VWS V14.01,2013-02-20 09:36:00,
2013-02-20 04:41:00,28.5,12.7,29.95,NNE,24,7.0,13.0,51,0.00,,CLR,0.00,0.00,VWS V14.01,2013-02-20 09:41:00,
2013-02-20 04:46:00,28.4,12.6,29.95,NNW,347,7.0,10.0,51,0.00,,CLR,0.00,0.00,VWS V14.01,2013-02-20 09:46:00,
2013-02-20 04:51:00,28.4,13.0,29.96,North,356,7.0,11.0,52,0.00,,CLR,0.00,0.00,VWS V14.01,2013-02-20 09:51:00,
2013-02-20 04:56:00,28.4,12.6,29.96,North,349,11.0,16.0,51,0.00,,CLR,0.00,0.00,VWS V14.01,2013-02-20 09:56:00,
2013-02-20 05:02:00,28.3,12.5,29.96,North,0,12.0,16.0,51,0.00,,CLR,0.00,0.00,VWS V14.01,2013-02-20 10:02:00,
2013-02-20 05:07:00,28.4,12.6,29.97,North,359,7.0,20.0,51,0.00,,CLR,0.00,0.00,VWS V14.01,2013-02-20 10:07:00,
2013-02-20 05:12:00,28.4,13.0,29.97,North,10,7.0,20.0,52,0.00,,CLR,0.00,0.00,VWS V14.01,2013-02-20 10:12:00,
2013-02-20 05:17:00,28.3,13.4,29.97,North,6,11.0,12.0,53,0.00,,CLR,0.00,0.00,VWS V14.01,2013-02-20 10:17:00,
2013-02-20 05:22:00,28.1,12.3,29.98,North,352,6.0,16.0,51,0.00,,CLR,0.00,0.00,VWS V14.01,2013-02-20 10:22:00,
2013-02-20 05:27:00,28.0,12.7,29.98,North,356,2.0,12.0,52,0.00,,CLR,0.00,0.00,VWS V14.01,2013-02-20 10:27:00,
2013-02-20 05:32:00,28.0,12.7,29.98,NNW,340,7.0,12.0,52,0.00,,CLR,0.00,0.00,VWS V14.01,2013-02-20 10:32:00,
2013-02-20 05:37:00,27.8,12.0,29.99,North,0,7.0,10.0,51,0.00,,CLR,0.00,0.00,VWS V14.01,2013-02-20 10:37:00,
2013-02-20 05:42:00,27.8,11.6,29.99,North,359,5.0,11.0,50,0.00,,CLR,0.00,0.00,VWS V14.01,2013-02-20 10:42:00,
2013-02-20 05:47:00,27.8,12.5,29.99,North,0,6.0,8.0,52,0.00,,CLR,0.00,0.00,VWS V14.01,2013-02-20 10:47:00,
2013-02-20 05:52:00,27.8,12.5,30.00,NW,311,10.0,10.0,52,0.00,,CLR,0.00,0.00,VWS V14.01,2013-02-20 10:52:00,
2013-02-20 05:58:00,27.7,12.4,30.00,WNW,302,6.0,10.0,52,0.00,,CLR,0.00,0.00,VWS V14.01,2013-02-20 10:58:00,
2013-02-20 06:03:00,27.7,11.5,30.00,North,0,6.0,14.0,50,0.00,,CLR,0.00,0.00,VWS V14.01,2013-02-20 11:03:00,
2013-02-20 06:08:00,27.4,11.2,30.00,North,0,5.0,14.0,50,0.00,,CLR,0.00,0.00,VWS V14.01,2013-02-20 11:08:00,
2013-02-20 06:13:00,27.4,11.7,30.00,North,353,11.0,14.0,51,0.00,,CLR,0.00,0.00,VWS V14.01,2013-02-20 11:13:00,
2013-02-20 06:18:00,27.2,11.9,30.00,NW,313,9.0,13.0,52,0.00,,CLR,0.00,0.00,VWS V14.01,2013-02-20 11:18:00,
2013-02-20 06:23:00,27.1,11.8,30.01,North,350,5.0,18.0,52,0.00,,CLR,0.00,0.00,VWS V14.01,2013-02-20 11:23:00,
2013-02-20 06:28:00,27.1,13.1,30.01,North,1,3.0,6.0,55,0.00,,CLR,0.00,0.00,VWS V14.01,2013-02-20 11:28:00,
2013-02-20 06:33:00,26.9,12.5,30.01,NNW,347,7.0,13.0,54,0.00,,CLR,0.00,0.00,VWS V14.01,2013-02-20 11:33:00,
2013-02-20 06:38:00,26.9,11.6,30.02,North,359,5.0,20.0,52,0.00,,CLR,0.00,0.00,VWS V14.01,2013-02-20 11:38:00,
2013-02-20 06:43:00,26.9,12.1,30.02,North,353,7.0,20.0,53,0.00,,CLR,0.00,0.00,VWS V14.01,2013-02-20 11:43:00,
2013-02-20 06:48:00,26.8,12.4,30.02,NE,35,11.0,13.0,54,0.00,,CLR,0.00,0.00,VWS V14.01,2013-02-20 11:48:00,
2013-02-20 06:53:00,26.6,11.8,30.02,North,357,5.0,13.0,53,0.00,,CLR,0.00,0.00,VWS V14.01,2013-02-20 11:53:00,
2013-02-20 06:58:00,26.6,11.4,30.02,North,0,7.0,13.0,52,0.00,,CLR,0.00,0.00,VWS V14.01,2013-02-20 11:58:00,
2013-02-20 07:04:00,26.5,10.8,30.02,North,0,7.0,17.0,51,0.00,,CLR,0.00,5.00,VWS V14.01,2013-02-20 12:04:00,
2013-02-20 07:09:00,26.5,11.3,30.02,North,0,8.0,14.0,52,0.00,,CLR,0.00,7.00,VWS V14.01,2013-02-20 12:09:00,
2013-02-20 07:14:00,26.5,11.3,30.02,North,11,6.0,14.0,52,0.00,,CLR,0.00,7.00,VWS V14.01,2013-02-20 12:14:00,
2013-02-20 07:19:00,26.3,11.1,30.02,NNE,16,12.0,17.0,52,0.00,,CLR,0.00,12.00,VWS V14.01,2013-02-20 12:19:00,
2013-02-20 07:24:00,26.2,11.4,30.03,NNE,16,12.0,18.0,53,0.00,,CLR,0.00,16.00,VWS V14.01,2013-02-20 12:24:00,
2013-02-20 07:29:00,26.3,10.6,30.03,North,0,11.0,20.0,51,0.00,,CLR,0.00,16.00,VWS V14.01,2013-02-20 12:29:00,
2013-02-20 07:34:00,26.3,11.1,30.03,North,10,7.0,20.0,52,0.00,,CLR,0.00,28.00,VWS V14.01,2013-02-20 12:34:00,
2013-02-20 07:39:00,26.3,11.1,30.04,NNW,339,8.0,14.0,52,0.00,,CLR,0.00,42.00,VWS V14.01,2013-02-20 12:39:00,
2013-02-20 07:44:00,26.3,10.6,30.04,North,350,6.0,14.0,51,0.00,,CLR,0.00,74.00,VWS V14.01,2013-02-20 12:44:00,
2013-02-20 07:49:00,26.5,11.3,30.04,North,0,7.0,14.0,52,0.00,,CLR,0.00,72.00,VWS V14.01,2013-02-20 12:49:00,
2013-02-20 07:54:00,26.5,11.3,30.04,North,0,11.0,14.0,52,0.00,,CLR,0.00,77.00,VWS V14.01,2013-02-20 12:54:00,
2013-02-20 07:59:00,26.6,10.9,30.04,North,0,7.0,14.0,51,0.00,,CLR,0.00,97.00,VWS V14.01,2013-02-20 12:59:00,
2013-02-20 08:04:00,26.8,11.1,30.05,NNW,329,7.0,14.0,51,0.00,,CLR,0.00,100.00,VWS V14.01,2013-02-20 13:04:00,
2013-02-20 08:10:00,26.8,11.1,30.05,NNE,14,8.0,12.0,51,0.00,,CLR,0.00,97.00,VWS V14.01,2013-02-20 13:10:00,
2013-02-20 08:15:00,26.8,11.1,30.05,North,10,11.0,14.0,51,0.00,,CLR,0.00,86.00,VWS V14.01,2013-02-20 13:15:00,
2013-02-20 08:20:00,26.6,10.5,30.05,North,7,10.0,18.0,50,0.00,,CLR,0.00,95.00,VWS V14.01,2013-02-20 13:20:00,
2013-02-20 08:25:00,26.6,10.5,30.05,North,3,18.0,20.0,50,0.00,,CLR,0.00,90.00,VWS V14.01,2013-02-20 13:25:00,
2013-02-20 08:30:00,26.6,10.5,30.05,North,1,11.0,20.0,50,0.00,,CLR,0.00,88.00,VWS V14.01,2013-02-20 13:30:00,
2013-02-20 08:35:00,26.5,10.8,30.06,North,0,20.0,20.0,51,0.00,,CLR,0.00,86.00,VWS V14.01,2013-02-20 13:35:00,
2013-02-20 08:40:00,26.5,10.4,30.06,NW,312,11.0,21.0,50,0.00,,CLR,0.00,86.00,VWS V14.01,2013-02-20 13:40:00,
2013-02-20 08:45:00,26.5,10.4,30.06,North,7,14.0,21.0,50,0.00,,CLR,0.00,84.00,VWS V14.01,2013-02-20 13:45:00,
2013-02-20 08:50:00,26.5,10.4,30.06,North,10,12.0,16.0,50,0.00,,CLR,0.00,102.00,VWS V14.01,2013-02-20 13:50:00,
2013-02-20 08:55:00,26.6,10.5,30.06,North,356,10.0,20.0,50,0.00,,CLR,0.00,107.00,VWS V14.01,2013-02-20 13:55:00,
2013-02-20 09:00:00,26.6,10.9,30.06,North,10,11.0,20.0,51,0.00,,CLR,0.00,90.00,VWS V14.01,2013-02-20 14:00:00,
2013-02-20 09:05:00,26.6,10.5,30.05,NNW,340,11.0,18.0,50,0.00,,CLR,0.00,83.00,VWS V14.01,2013-02-20 14:05:00,
2013-02-20 09:11:00,26.8,10.7,30.05,North,357,5.0,18.0,50,0.00,,CLR,0.00,84.00,VWS V14.01,2013-02-20 14:11:00,
2013-02-20 09:16:00,26.9,10.3,30.05,NNW,346,12.0,18.0,49,0.00,,CLR,0.00,70.00,VWS V14.01,2013-02-20 14:16:00,
2013-02-20 09:21:00,26.9,10.8,30.05,North,359,5.0,18.0,50,0.00,,CLR,0.00,91.00,VWS V14.01,2013-02-20 14:21:00,
2013-02-20 09:26:00,26.9,9.9,30.05,WNW,295,13.0,16.0,48,0.00,,CLR,0.00,102.00,VWS V14.01,2013-02-20 14:26:00,
2013-02-20 09:31:00,26.9,9.9,30.05,North,0,8.0,17.0,48,0.00,,CLR,0.00,113.00,VWS V14.01,2013-02-20 14:31:00,
2013-02-20 09:36:00,27.1,10.5,30.06,North,359,8.0,13.0,49,0.00,,CLR,0.00,135.00,VWS V14.01,2013-02-20 14:36:00,
2013-02-20 09:41:00,27.2,10.1,30.06,NNE,17,13.0,17.0,48,0.00,,CLR,0.00,116.00,VWS V14.01,2013-02-20 14:41:00,
2013-02-20 09:46:00,27.2,10.1,30.06,North,0,8.0,11.0,48,0.00,,CLR,0.00,107.00,VWS V14.01,2013-02-20 14:46:00,
2013-02-20 09:51:00,27.4,9.8,30.06,North,359,5.0,11.0,47,0.00,,CLR,0.00,104.00,VWS V14.01,2013-02-20 14:51:00,
2013-02-20 09:56:00,27.5,9.9,30.06,NNW,333,11.0,13.0,47,0.00,,CLR,0.00,120.00,VWS V14.01,2013-02-20 14:56:00,
2013-02-20 10:01:00,27.5,9.4,30.06,NW,323,4.0,20.0,46,0.00,,CLR,0.00,146.00,VWS V14.01,2013-02-20 15:01:00,
2013-02-20 10:06:00,27.7,10.6,30.06,North,0,8.0,9.0,48,0.00,,CLR,0.00,118.00,VWS V14.01,2013-02-20 15:06:00,
2013-02-20 10:11:00,27.8,11.1,30.06,North,1,5.0,13.0,49,0.00,,CLR,0.00,104.00,VWS V14.01,2013-02-20 15:11:00,
2013-02-20 10:16:00,27.8,9.7,30.06,NNW,336,5.0,17.0,46,0.00,,CLR,0.00,102.00,VWS V14.01,2013-02-20 15:16:00,
2013-02-20 10:22:00,27.8,10.2,30.06,North,349,6.0,17.0,47,0.00,,CLR,0.00,137.00,VWS V14.01,2013-02-20 15:22:00,
2013-02-20 10:27:00,28.0,10.4,30.06,NNE,21,6.0,12.0,47,0.00,,CLR,0.00,157.00,VWS V14.01,2013-02-20 15:27:00,
2013-02-20 10:32:00,28.0,10.4,30.06,North,357,14.0,17.0,47,0.00,,CLR,0.00,153.00,VWS V14.01,2013-02-20 15:32:00,
2013-02-20 10:37:00,28.0,10.9,30.06,North,356,3.0,10.0,48,0.00,,CLR,0.00,114.00,VWS V14.01,2013-02-20 15:37:00,
2013-02-20 10:42:00,28.1,10.5,30.06,North,0,3.0,10.0,47,0.00,,CLR,0.00,123.00,VWS V14.01,2013-02-20 15:42:00,
2013-02-20 10:47:00,28.3,11.1,30.06,NNW,330,4.0,13.0,48,0.00,,CLR,0.00,125.00,VWS V14.01,2013-02-20 15:47:00,
2013-02-20 10:52:00,28.1,10.0,30.07,NNW,329,7.0,17.0,46,0.00,,CLR,0.00,114.00,VWS V14.01,2013-02-20 15:52:00,
2013-02-20 10:57:00,28.1,10.5,30.07,NW,325,5.0,8.0,47,0.00,,CLR,0.00,120.00,VWS V14.01,2013-02-20 15:57:00,
2013-02-20 11:02:00,28.1,10.9,30.07,NNW,329,16.0,16.0,48,0.00,,CLR,0.00,120.00,VWS V14.01,2013-02-20 16:02:00,
2013-02-20 11:07:00,28.1,10.0,30.07,North,349,8.0,12.0,46,0.00,,CLR,0.00,143.00,VWS V14.01,2013-02-20 16:07:00,
2013-02-20 11:12:00,28.1,9.5,30.07,NNW,329,7.0,18.0,45,0.00,,CLR,0.00,128.00,VWS V14.01,2013-02-20 16:12:00,
2013-02-20 11:17:00,28.3,10.2,30.07,North,356,8.0,13.0,46,0.00,,CLR,0.00,106.00,VWS V14.01,2013-02-20 16:17:00,
2013-02-20 11:23:00,28.1,10.0,30.07,NNE,28,11.0,18.0,46,0.00,,CLR,0.00,100.00,VWS V14.01,2013-02-20 16:23:00,
2013-02-20 11:28:00,28.3,10.2,30.07,WNW,287,6.0,14.0,46,0.00,,CLR,0.00,83.00,VWS V14.01,2013-02-20 16:28:00,
2013-02-20 11:33:00,28.3,10.2,30.07,North,0,6.0,16.0,46,0.00,,CLR,0.00,111.00,VWS V14.01,2013-02-20 16:33:00,
2013-02-20 11:38:00,28.7,9.1,30.07,NNW,342,6.0,13.0,43,0.00,,CLR,0.00,130.00,VWS V14.01,2013-02-20 16:38:00,
2013-02-20 11:43:00,29.0,9.8,30.07,North,0,7.0,17.0,44,0.00,,CLR,0.00,130.00,VWS V14.01,2013-02-20 16:43:00,
2013-02-20 11:48:00,29.3,9.6,30.07,North,0,15.0,19.0,43,0.00,,CLR,0.00,99.00,VWS V14.01,2013-02-20 16:48:00,
2013-02-20 11:53:00,28.7,9.1,30.06,NNW,337,8.0,19.0,43,0.00,,CLR,0.00,121.00,VWS V14.01,2013-02-20 16:53:00,
2013-02-20 11:58:00,28.8,9.1,30.06,NNW,335,7.0,14.0,43,0.00,,CLR,0.00,106.00,VWS V14.01,2013-02-20 16:58:00,
2013-02-20 12:03:00,28.8,9.6,30.06,North,0,2.0,17.0,44,0.00,,CLR,0.00,81.00,VWS V14.01,2013-02-20 17:03:00,
2013-02-20 12:08:00,29.1,9.4,30.06,North,0,8.0,16.0,43,0.00,,CLR,0.00,114.00,VWS V14.01,2013-02-20 17:08:00,
2013-02-20 12:13:00,29.1,9.9,30.06,NNW,329,7.0,17.0,44,0.00,,CLR,0.00,121.00,VWS V14.01,2013-02-20 17:13:00,
2013-02-20 12:18:00,29.1,9.4,30.06,North,356,6.0,12.0,43,0.00,,CLR,0.00,155.00,VWS V14.01,2013-02-20 17:18:00,
2013-02-20 12:23:00,29.4,10.7,30.06,North,0,0.0,12.0,45,0.00,,CLR,0.00,134.00,VWS V14.01,2013-02-20 17:23:00,
2013-02-20 12:28:00,29.7,10.0,30.06,NNW,336,6.0,11.0,43,0.00,,CLR,0.00,134.00,VWS V14.01,2013-02-20 17:28:00,
2013-02-20 12:34:00,29.7,10.0,30.06,North,8,0.0,14.0,43,0.00,,CLR,0.00,121.00,VWS V14.01,2013-02-20 17:34:00,
2013-02-20 12:39:00,30.0,10.2,30.05,North,0,7.0,11.0,43,0.00,,CLR,0.00,123.00,VWS V14.01,2013-02-20 17:39:00,
2013-02-20 12:44:00,30.0,10.7,30.05,NW,309,1.0,11.0,44,0.00,,CLR,0.00,146.00,VWS V14.01,2013-02-20 17:44:00,
2013-02-20 12:49:00,30.5,10.2,30.05,North,0,7.0,16.0,42,0.00,,CLR,0.00,146.00,VWS V14.01,2013-02-20 17:49:00,
2013-02-20 12:54:00,30.6,11.3,30.05,North,354,2.0,16.0,44,0.00,,CLR,0.00,739.00,VWS V14.01,2013-02-20 17:54:00,
2013-02-20 12:59:00,31.5,11.6,30.05,North,6,5.0,12.0,43,0.00,,CLR,0.00,748.00,VWS V14.01,2013-02-20 17:59:00,
2013-02-20 13:04:00,32.1,11.1,30.05,NW,309,8.0,22.0,41,0.00,,CLR,0.00,732.00,VWS V14.01,2013-02-20 18:04:00,
2013-02-20 13:09:00,31.9,10.9,30.05,North,0,8.0,21.0,41,0.00,,CLR,0.00,760.00,VWS V14.01,2013-02-20 18:09:00,
2013-02-20 13:14:00,32.1,10.5,30.05,NNW,339,11.0,21.0,40,0.00,,CLR,0.00,772.00,VWS V14.01,2013-02-20 18:14:00,
2013-02-20 13:19:00,32.1,9.9,30.05,North,352,2.0,10.0,39,0.00,,CLR,0.00,772.00,VWS V14.01,2013-02-20 18:19:00,
2013-02-20 13:24:00,32.1,10.5,30.05,NE,54,6.0,10.0,40,0.00,,CLR,0.00,158.00,VWS V14.01,2013-02-20 18:24:00,
2013-02-20 13:29:00,32.1,11.6,30.05,NNW,340,11.0,13.0,42,0.00,,CLR,0.00,158.00,VWS V14.01,2013-02-20 18:29:00,
2013-02-20 13:35:00,32.2,11.2,30.05,North,352,12.0,14.0,41,0.00,,CLR,0.00,732.00,VWS V14.01,2013-02-20 18:35:00,
2013-02-20 13:40:00,32.2,11.7,30.05,NE,49,10.0,16.0,42,0.00,,CLR,0.00,632.00,VWS V14.01,2013-02-20 18:40:00,
2013-02-20 13:45:00,32.5,11.4,30.05,North,0,7.0,16.0,41,0.00,,CLR,0.00,632.00,VWS V14.01,2013-02-20 18:45:00,
2013-02-20 13:50:00,32.2,10.0,30.06,NW,313,10.0,15.0,39,0.00,,CLR,0.00,809.00,VWS V14.01,2013-02-20 18:50:00,
2013-02-20 13:55:00,32.5,10.9,30.06,NW,319,7.0,15.0,40,0.00,,CLR,0.00,809.00,VWS V14.01,2013-02-20 18:55:00,
2013-02-20 14:00:00,32.7,10.5,30.06,WNW,299,18.0,18.0,39,0.00,,CLR,0.00,702.00,VWS V14.01,2013-02-20 19:00:00,
2013-02-20 14:05:00,31.9,10.3,30.06,North,356,10.0,18.0,40,0.00,,CLR,0.00,245.00,VWS V14.01,2013-02-20 19:05:00,
2013-02-20 14:10:00,31.2,11.3,30.06,North,7,11.0,11.0,43,0.00,,CLR,0.00,169.00,VWS V14.01,2013-02-20 19:10:00,
2013-02-20 14:15:00,31.7,10.7,30.06,North,11,11.0,19.0,41,0.00,,CLR,0.00,151.00,VWS V14.01,2013-02-20 19:15:00,
2013-02-20 14:20:00,31.1,11.2,30.06,North,0,7.0,16.0,43,0.00,,CLR,0.00,155.00,VWS V14.01,2013-02-20 19:20:00,
2013-02-20 14:25:00,30.9,11.1,30.06,NNW,337,4.0,4.0,43,0.00,,CLR,0.00,162.00,VWS V14.01,2013-02-20 19:25:00,
2013-02-20 14:30:00,30.8,11.5,30.06,NNE,18,5.0,12.0,44,0.00,,CLR,0.00,135.00,VWS V14.01,2013-02-20 19:30:00,
2013-02-20 14:35:00,30.5,11.2,30.06,North,0,4.0,4.0,44,0.00,,CLR,0.00,139.00,VWS V14.01,2013-02-20 19:35:00,
2013-02-20 14:40:00,30.6,11.3,30.06,NNE,16,3.0,7.0,44,0.00,,CLR,0.00,183.00,VWS V14.01,2013-02-20 19:40:00,
2013-02-20 14:46:00,32.1,12.7,30.06,North,0,7.0,7.0,44,0.00,,CLR,0.00,561.00,VWS V14.01,2013-02-20 19:46:00,
2013-02-20 14:51:00,32.7,11.1,30.06,North,0,8.0,16.0,40,0.00,,CLR,0.00,589.00,VWS V14.01,2013-02-20 19:51:00,
2013-02-20 14:56:00,32.7,11.6,30.06,NE,40,10.0,10.0,41,0.00,,CLR,0.00,609.00,VWS V14.01,2013-02-20 19:56:00,
2013-02-20 15:01:00,32.1,12.1,30.06,North,6,10.0,13.0,43,0.00,,CLR,0.00,157.00,VWS V14.01,2013-02-20 20:01:00,
2013-02-20 15:06:00,32.1,11.6,30.08,NE,35,12.0,13.0,42,0.00,,CLR,0.00,547.00,VWS V14.01,2013-02-20 20:06:00,
2013-02-20 15:11:00,31.9,12.0,30.08,NNW,330,5.0,19.0,43,0.00,,CLR,0.00,535.00,VWS V14.01,2013-02-20 20:11:00,
2013-02-20 15:16:00,32.2,12.8,30.08,NNE,20,9.0,11.0,44,0.00,,CLR,0.00,501.00,VWS V14.01,2013-02-20 20:16:00,
2013-02-20 15:21:00,32.1,12.1,30.09,North,0,6.0,17.0,43,0.00,,CLR,0.00,477.00,VWS V14.01,2013-02-20 20:21:00,
2013-02-20 15:26:00,32.1,12.1,30.09,NNE,13,7.0,13.0,43,0.00,,CLR,0.00,466.00,VWS V14.01,2013-02-20 20:26:00,
2013-02-20 15:31:00,31.5,12.1,30.09,North,0,11.0,17.0,44,0.00,,CLR,0.00,435.00,VWS V14.01,2013-02-20 20:31:00,
2013-02-20 15:36:00,31.4,12.5,30.09,North,359,5.0,11.0,45,0.00,,CLR,0.00,415.00,VWS V14.01,2013-02-20 20:36:00,
2013-02-20 15:41:00,31.7,12.8,30.09,North,349,5.0,18.0,45,0.00,,CLR,0.00,419.00,VWS V14.01,2013-02-20 20:41:00,
2013-02-20 15:47:00,31.9,13.0,30.09,North,357,7.0,12.0,45,0.00,,CLR,0.00,398.00,VWS V14.01,2013-02-20 20:47:00,
2013-02-20 15:52:00,31.8,12.4,30.10,North,0,5.0,17.0,44,0.00,,CLR,0.00,392.00,VWS V14.01,2013-02-20 20:52:00,
2013-02-20 15:57:00,31.7,11.8,30.10,NNE,23,6.0,11.0,43,0.00,,CLR,0.00,350.00,VWS V14.01,2013-02-20 20:57:00,
2013-02-20 16:02:00,31.4,12.0,30.10,NNE,18,6.0,11.0,44,0.00,,CLR,0.00,361.00,VWS V14.01,2013-02-20 21:02:00,
2013-02-20 16:07:00,31.2,11.8,30.11,North,8,7.0,12.0,44,0.00,,CLR,0.00,352.00,VWS V14.01,2013-02-20 21:07:00,
2013-02-20 16:12:00,31.1,11.8,30.11,NNW,339,8.0,13.0,44,0.00,,CLR,0.00,304.00,VWS V14.01,2013-02-20 21:12:00,
2013-02-20 16:17:00,30.9,11.6,30.11,North,357,13.0,18.0,44,0.00,,CLR,0.00,315.00,VWS V14.01,2013-02-20 21:17:00,
2013-02-20 16:22:00,30.3,11.5,30.11,North,7,9.0,18.0,45,0.00,,CLR,0.00,308.00,VWS V14.01,2013-02-20 21:22:00,
2013-02-20 16:27:00,30.2,11.9,30.11,North,354,7.0,15.0,46,0.00,,CLR,0.00,267.00,VWS V14.01,2013-02-20 21:27:00,
2013-02-20 16:32:00,29.9,11.2,30.11,NNE,17,12.0,18.0,45,0.00,,CLR,0.00,243.00,VWS V14.01,2013-02-20 21:32:00,
2013-02-20 16:37:00,29.4,11.2,30.12,North,3,13.0,18.0,46,0.00,,CLR,0.00,209.00,VWS V14.01,2013-02-20 21:37:00,
2013-02-20 16:42:00,29.0,10.8,30.12,North,0,8.0,19.0,46,0.00,,CLR,0.00,181.00,VWS V14.01,2013-02-20 21:42:00,
2013-02-20 16:47:00,28.5,10.4,30.12,NNW,330,11.0,18.0,46,0.00,,CLR,0.00,44.00,VWS V14.01,2013-02-20 21:47:00,
2013-02-20 16:53:00,28.3,11.6,30.13,North,0,8.0,18.0,49,0.00,,CLR,0.00,46.00,VWS V14.01,2013-02-20 21:53:00,
2013-02-20 16:58:00,28.1,10.5,30.13,NNE,20,12.0,16.0,47,0.00,,CLR,0.00,48.00,VWS V14.01,2013-02-20 21:58:00,
2013-02-20 17:03:00,27.8,10.7,30.13,North,357,8.0,18.0,48,0.00,,CLR,0.00,37.00,VWS V14.01,2013-02-20 22:03:00,
2013-02-20 17:08:00,27.8,10.7,30.14,North,0,6.0,18.0,48,0.00,,CLR,0.00,33.00,VWS V14.01,2013-02-20 22:08:00,
2013-02-20 17:13:00,27.7,10.6,30.14,North,0,13.0,25.0,48,0.00,,CLR,0.00,28.00,VWS V14.01,2013-02-20 22:13:00,
2013-02-20 17:18:00,27.5,10.4,30.14,NNW,337,7.0,12.0,48,0.00,,CLR,0.00,26.00,VWS V14.01,2013-02-20 22:18:00,
2013-02-20 17:23:00,27.5,11.3,30.14,North,0,13.0,16.0,50,0.00,,CLR,0.00,30.00,VWS V14.01,2013-02-20 22:23:00,
2013-02-20 17:28:00,27.4,10.3,30.14,North,0,9.0,20.0,48,0.00,,CLR,0.00,26.00,VWS V14.01,2013-02-20 22:28:00,
2013-02-20 17:33:00,27.2,10.6,30.14,NNW,344,6.0,21.0,49,0.00,,CLR,0.00,26.00,VWS V14.01,2013-02-20 22:33:00,
2013-02-20 17:38:00,27.1,10.5,30.15,North,0,8.0,14.0,49,0.00,,CLR,0.00,19.00,VWS V14.01,2013-02-20 22:38:00,
2013-02-20 17:43:00,26.9,10.8,30.15,North,0,8.0,16.0,50,0.00,,CLR,0.00,14.00,VWS V14.01,2013-02-20 22:43:00,
2013-02-20 17:48:00,26.9,10.8,30.15,North,0,12.0,17.0,50,0.00,,CLR,0.00,11.00,VWS V14.01,2013-02-20 22:48:00,
2013-02-20 17:54:00,26.8,10.2,30.16,North,3,6.0,17.0,49,0.00,,CLR,0.00,7.00,VWS V14.01,2013-02-20 22:54:00,
2013-02-20 17:59:00,26.8,10.7,30.16,North,4,9.0,10.0,50,0.00,,CLR,0.00,5.00,VWS V14.01,2013-02-20 22:59:00,
2013-02-20 18:04:00,26.6,10.5,30.16,North,4,7.0,17.0,50,0.00,,CLR,0.00,0.00,VWS V14.01,2013-02-20 23:04:00,
2013-02-20 18:09:00,26.6,10.0,30.17,WNW,295,9.0,18.0,49,0.00,,CLR,0.00,0.00,VWS V14.01,2013-02-20 23:09:00,
2013-02-20 18:14:00,26.5,10.4,30.17,North,0,6.0,18.0,50,0.00,,CLR,0.00,0.00,VWS V14.01,2013-02-20 23:14:00,
2013-02-20 18:19:00,26.5,9.9,30.17,North,0,5.0,16.0,49,0.00,,CLR,0.00,0.00,VWS V14.01,2013-02-20 23:19:00,
2013-02-20 18:24:00,26.3,10.2,30.18,North,8,7.0,16.0,50,0.00,,CLR,0.00,0.00,VWS V14.01,2013-02-20 23:24:00,
2013-02-20 18:29:00,26.3,10.2,30.18,North,357,8.0,14.0,50,0.00,,CLR,0.00,0.00,VWS V14.01,2013-02-20 23:29:00,
2013-02-20 18:34:00,26.3,10.2,30.19,North,359,7.0,16.0,50,0.00,,CLR,0.00,0.00,VWS V14.01,2013-02-20 23:34:00,
2013-02-20 18:39:00,26.3,11.5,30.19,NNE,28,3.0,12.0,53,0.00,,CLR,0.00,0.00,VWS V14.01,2013-02-20 23:39:00,
2013-02-20 18:44:00,26.3,11.9,30.19,NNE,13,3.0,12.0,54,0.00,,CLR,0.00,0.00,VWS V14.01,2013-02-20 23:44:00,
2013-02-20 18:50:00,26.2,11.8,30.19,NE,37,9.0,11.0,54,0.00,,CLR,0.00,0.00,VWS V14.01,2013-02-20 23:50:00,
2013-02-20 18:55:00,26.0,11.6,30.19,NNW,339,5.0,12.0,54,0.00,,CLR,0.00,0.00,VWS V14.01,2013-02-20 23:55:00,
2013-02-20 19:00:00,26.0,12.1,30.19,NNE,20,6.0,9.0,55,0.00,,CLR,0.00,0.00,VWS V14.01,2013-02-21 00:00:00,
2013-02-20 19:05:00,25.9,11.1,30.19,NNE,16,3.0,9.0,53,0.00,,CLR,0.00,0.00,VWS V14.01,2013-02-21 00:05:00,
2013-02-20 19:10:00,25.9,11.6,30.19,North,350,5.0,12.0,54,0.00,,CLR,0.00,0.00,VWS V14.01,2013-02-21 00:10:00,
2013-02-20 19:15:00,25.7,11.4,30.19,North,0,2.0,12.0,54,0.00,,CLR,0.00,0.00,VWS V14.01,2013-02-21 00:15:00,
2013-02-20 19:20:00,25.7,11.8,30.20,NNE,31,3.0,6.0,55,0.00,,CLR,0.00,0.00,VWS V14.01,2013-02-21 00:20:00,
2013-02-20 19:25:00,25.6,11.3,30.20,NNE,21,5.0,5.0,54,0.00,,CLR,0.00,0.00,VWS V14.01,2013-02-21 00:25:00,
2013-02-20 19:30:00,25.6,11.7,30.20,NE,40,2.0,7.0,55,0.00,,CLR,0.00,0.00,VWS V14.01,2013-02-21 00:30:00,
2013-02-20 19:36:00,25.4,11.9,30.20,NNE,28,6.0,6.0,56,0.00,,CLR,0.00,0.00,VWS V14.01,2013-02-21 00:36:00,
2013-02-20 19:41:00,25.3,12.2,30.20,NNE,27,6.0,7.0,57,0.00,,CLR,0.00,0.00,VWS V14.01,2013-02-21 00:41:00,
2013-02-20 19:46:00,25.1,11.6,30.20,North,0,8.0,10.0,56,0.00,,CLR,0.00,0.00,VWS V14.01,2013-02-21 00:46:00,
2013-02-20 19:51:00,25.1,10.8,30.19,North,0,6.0,12.0,54,0.00,,CLR,0.00,0.00,VWS V14.01,2013-02-21 00:51:00,
2013-02-20 19:56:00,25.1,11.2,30.19,North,0,3.0,6.0,55,0.00,,CLR,0.00,0.00,VWS V14.01,2013-02-21 00:56:00,
2013-02-20 20:01:00,25.0,11.5,30.19,NNE,32,5.0,7.0,56,0.00,,CLR,0.00,0.00,VWS V14.01,2013-02-21 01:01:00,
2013-02-20 20:06:00,24.7,11.6,30.20,North,0,2.0,6.0,57,0.00,,CLR,0.00,0.00,VWS V14.01,2013-02-21 01:06:00,
2013-02-20 20:11:00,24.6,11.9,30.20,North,359,10.0,10.0,58,0.00,,CLR,0.00,0.00,VWS V14.01,2013-02-21 01:11:00,
2013-02-20 20:16:00,24.6,11.2,30.20,North,0,7.0,8.0,56,0.00,,CLR,0.00,0.00,VWS V14.01,2013-02-21 01:16:00,
2013-02-20 20:21:00,24.6,10.8,30.21,NNE,18,6.0,8.0,55,0.00,,CLR,0.00,0.00,VWS V14.01,2013-02-21 01:21:00,
2013-02-20 20:26:00,24.6,10.8,30.21,NNE,20,5.0,8.0,55,0.00,,CLR,0.00,0.00,VWS V14.01,2013-02-21 01:26:00,
2013-02-20 20:32:00,24.4,10.1,30.21,NNE,21,3.0,8.0,54,0.00,,CLR,0.00,0.00,VWS V14.01,2013-02-21 01:32:00,
2013-02-20 20:37:00,24.4,10.6,30.21,North,359,6.0,8.0,55,0.00,,CLR,0.00,0.00,VWS V14.01,2013-02-21 01:37:00,
2013-02-20 20:42:00,24.3,10.5,30.21,NNE,18,7.0,8.0,55,0.00,,CLR,0.00,0.00,VWS V14.01,2013-02-21 01:42:00,
2013-02-20 20:47:00,24.1,10.7,30.21,North,10,10.0,17.0,56,0.00,,CLR,0.00,0.00,VWS V14.01,2013-02-21 01:47:00,
2013-02-20 20:52:00,24.1,10.3,30.21,NNE,18,3.0,17.0,55,0.00,,CLR,0.00,0.00,VWS V14.01,2013-02-21 01:52:00,
2013-02-20 20:57:00,24.0,10.2,30.21,North,6,6.0,8.0,55,0.00,,CLR,0.00,0.00,VWS V14.01,2013-02-21 01:57:00,
2013-02-20 21:02:00,24.0,10.2,30.21,North,11,6.0,13.0,55,0.00,,CLR,0.00,0.00,VWS V14.01,2013-02-21 02:02:00,
2013-02-20 21:07:00,23.8,10.0,30.22,North,1,3.0,8.0,55,0.00,,CLR,0.00,0.00,VWS V14.01,2013-02-21 02:07:00,
2013-02-20 21:12:00,23.7,10.3,30.22,NNE,18,8.0,13.0,56,0.00,,CLR,0.00,0.00,VWS V14.01,2013-02-21 02:12:00,
2013-02-20 21:17:00,23.7,9.9,30.22,NNE,14,7.0,14.0,55,0.00,,CLR,0.00,0.00,VWS V14.01,2013-02-21 02:17:00,
2013-02-20 21:23:00,23.5,9.7,30.22,North,7,7.0,14.0,55,0.00,,CLR,0.00,0.00,VWS V14.01,2013-02-21 02:23:00,
2013-02-20 21:28:00,23.4,10.0,30.22,North,0,6.0,12.0,56,0.00,,CLR,0.00,0.00,VWS V14.01,2013-02-21 02:28:00,
2013-02-20 21:33:00,23.4,10.4,30.22,North,0,6.0,12.0,57,0.00,,CLR,0.00,0.00,VWS V14.01,2013-02-21 02:33:00,
2013-02-20 21:38:00,23.4,10.4,30.22,NNW,342,4.0,7.0,57,0.00,,CLR,0.00,0.00,VWS V14.01,2013-02-21 02:38:00,
2013-02-20 21:43:00,23.2,10.6,30.22,North,0,8.0,8.0,58,0.00,,CLR,0.00,0.00,VWS V14.01,2013-02-21 02:43:00,
2013-02-20 21:48:00,23.2,10.2,30.22,North,0,6.0,11.0,57,0.00,,CLR,0.00,0.00,VWS V14.01,2013-02-21 02:48:00,
2013-02-20 21:53:00,23.2,10.2,30.23,North,359,4.0,11.0,57,0.00,,CLR,0.00,0.00,VWS V14.01,2013-02-21 02:53:00,
2013-02-20 21:58:00,23.2,10.2,30.23,NNE,14,2.0,6.0,57,0.00,,CLR,0.00,0.00,VWS V14.01,2013-02-21 02:58:00,
2013-02-20 22:03:00,23.2,10.6,30.23,North,11,5.0,10.0,58,0.00,,CLR,0.00,0.00,VWS V14.01,2013-02-21 03:03:00,
2013-02-20 22:09:00,23.2,10.2,30.23,NNW,329,7.0,13.0,57,0.00,,CLR,0.00,0.00,VWS V14.01,2013-02-21 03:09:00,
2013-02-20 22:14:00,23.2,9.8,30.23,NNW,333,3.0,13.0,56,0.00,,CLR,0.00,0.00,VWS V14.01,2013-02-21 03:14:00,
2013-02-20 22:19:00,23.2,10.2,30.23,NNE,14,5.0,7.0,57,0.00,,CLR,0.00,0.00,VWS V14.01,2013-02-21 03:19:00,
2013-02-20 22:24:00,23.1,10.5,30.23,NNE,17,5.0,7.0,58,0.00,,CLR,0.00,0.00,VWS V14.01,2013-02-21 03:24:00,
2013-02-20 22:29:00,22.9,10.0,30.23,North,354,5.0,8.0,57,0.00,,CLR,0.00,0.00,VWS V14.01,2013-02-21 03:29:00,
2013-02-20 22:34:00,22.9,10.3,30.23,North,8,7.0,12.0,58,0.00,,CLR,0.00,0.00,VWS V14.01,2013-02-21 03:34:00,
2013-02-20 22:39:00,22.9,10.0,30.23,North,0,4.0,11.0,57,0.00,,CLR,0.00,0.00,VWS V14.01,2013-02-21 03:39:00,
2013-02-20 22:44:00,22.8,9.9,30.23,North,0,7.0,11.0,57,0.00,,CLR,0.00,0.00,VWS V14.01,2013-02-21 03:44:00,
2013-02-20 22:49:00,22.8,10.2,30.23,NNE,17,4.0,7.0,58,0.00,,CLR,0.00,0.00,VWS V14.01,2013-02-21 03:49:00,
2013-02-20 22:54:00,22.0,9.1,30.21,NE,48,8.0,8.0,57,0.00,,CLR,0.00,0.00,VWS V14.01,2013-02-21 03:54:00,
2013-02-20 22:55:00,22.6,9.7,30.23,NE,47,5.0,8.0,57,0.00,,CLR,0.00,0.00,VWS V14.01,2013-02-21 03:55:00,
2013-02-20 22:56:00,22.0,9.1,30.21,North,3,6.0,8.0,57,0.00,,CLR,0.00,0.00,VWS V14.01,2013-02-21 03:56:00,
2013-02-20 22:57:00,22.0,9.1,30.21,North,3,3.0,8.0,57,0.00,,CLR,0.00,0.00,VWS V14.01,2013-02-21 03:57:00,
2013-02-20 22:58:00,22.0,8.7,30.21,North,4,2.0,8.0,56,0.00,,CLR,0.00,0.00,VWS V14.01,2013-02-21 03:58:00,
2013-02-20 22:59:00,21.9,9.0,30.21,North,0,5.0,8.0,57,0.00,,CLR,0.00,0.00,VWS V14.01,2013-02-21 03:59:00,
2013-02-20 23:00:00,22.6,9.3,30.23,North,350,9.0,9.0,56,0.00,,CLR,0.00,0.00,VWS V14.01,2013-02-21 04:00:00,
2013-02-20 23:01:00,21.9,9.0,30.21,North,3,3.0,5.0,57,0.00,,CLR,0.00,0.00,VWS V14.01,2013-02-21 04:01:00,
2013-02-20 23:02:00,21.9,9.0,30.21,NNE,16,8.0,8.0,57,0.00,,CLR,0.00,0.00,VWS V14.01,2013-02-21 04:02:00,
2013-02-20 23:03:00,21.9,9.0,30.21,North,0,5.0,8.0,57,0.00,,CLR,0.00,0.00,VWS V14.01,2013-02-21 04:03:00,
2013-02-20 23:04:00,21.9,9.0,30.21,North,0,6.0,8.0,57,0.00,,CLR,0.00,0.00,VWS V14.01,2013-02-21 04:04:00,
2013-02-20 23:05:00,22.6,9.3,30.22,North,1,6.0,9.0,56,0.00,,CLR,0.00,0.00,VWS V14.01,2013-02-21 04:05:00,
2013-02-20 23:06:00,21.9,9.0,30.21,NNE,27,7.0,8.0,57,0.00,,CLR,0.00,0.00,VWS V14.01,2013-02-21 04:06:00,
2013-02-20 23:07:00,21.9,8.6,30.21,NNE,23,6.0,8.0,56,0.00,,CLR,0.00,0.00,VWS V14.01,2013-02-21 04:07:00,
2013-02-20 23:08:00,21.9,8.6,30.21,NNE,30,8.0,9.0,56,0.00,,CLR,0.00,0.00,VWS V14.01,2013-02-21 04:08:00,
2013-02-20 23:09:00,21.9,8.6,30.21,North,0,7.0,9.0,56,0.00,,CLR,0.00,0.00,VWS V14.01,2013-02-21 04:09:00,
2013-02-20 23:10:00,22.6,9.7,30.22,North,10,3.0,7.0,57,0.00,,CLR,0.00,0.00,VWS V14.01,2013-02-21 04:10:00,
2013-02-20 23:11:00,21.9,8.6,30.21,North,10,4.0,7.0,56,0.00,,CLR,0.00,0.00,VWS V14.01,2013-02-21 04:11:00,
2013-02-20 23:12:00,21.9,8.6,30.21,NNE,13,2.0,7.0,56,0.00,,CLR,0.00,0.00,VWS V14.01,2013-02-21 04:12:00,
2013-02-20 23:13:00,21.9,8.6,30.21,ENE,61,3.0,7.0,56,0.00,,CLR,0.00,0.00,VWS V14.01,2013-02-21 04:13:00,
2013-02-20 23:14:00,21.9,8.6,30.21,NNE,24,3.0,7.0,56,0.00,,CLR,0.00,0.00,VWS V14.01,2013-02-21 04:14:00,
2013-02-20 23:15:00,22.5,9.6,30.22,North,8,5.0,9.0,57,0.00,,CLR,0.00,0.00,VWS V14.01,2013-02-21 04:15:00,
2013-02-20 23:20:00,22.5,9.6,30.21,North,0,7.0,11.0,57,0.00,,CLR,0.00,0.00,VWS V14.01,2013-02-21 04:20:00,
2013-02-20 23:25:00,22.5,9.2,30.21,NE,35,6.0,11.0,56,0.00,,CLR,0.00,0.00,VWS V14.01,2013-02-21 04:25:00,
2013-02-20 23:30:00,22.5,9.6,30.21,NE,40,2.0,8.0,57,0.00,,CLR,0.00,0.00,VWS V14.01,2013-02-21 04:30:00,
2013-02-20 23:35:00,22.2,9.7,30.21,NE,54,2.0,2.0,58,0.00,,CLR,0.00,0.00,VWS V14.01,2013-02-21 04:35:00,
2013-02-20 23:40:00,22.0,9.5,30.21,NE,47,3.0,6.0,58,0.00,,CLR,0.00,0.00,VWS V14.01,2013-02-21 04:40:00,
2013-02-20 23:46:00,22.0,9.5,30.21,NNE,25,5.0,5.0,58,0.00,,CLR,0.00,0.00,VWS V14.01,2013-02-21 04:46:00,
2013-02-20 23:51:00,22.0,9.1,30.21,NNE,32,5.0,10.0,57,0.00,,CLR,0.00,0.00,VWS V14.01,2013-02-21 04:51:00,
2013-02-20 23:56:00,22.0,9.1,30.21,North,0,8.0,8.0,57,0.00,,CLR,0.00,0.00,VWS V14.01,2013-02-21 04:56:00,